Regional Weather Roundup
Issued by NWS Kansas City/Pleasant Hill, MO

Home | Current Version | Previous Version | Text Only | Print | Product List | Glossary On
Versions: 1 2 3 4 5 6 7 8 9 10 11 12 13 14 15 16 17 18 19 20 21 22 23 24 25 26 27 28
000
ASUS43 KEAX 301310
RWREAX

WEATHER ROUNDUP FOR EASTERN KANSAS AND NORTHWEST MISSOURI
NATIONAL WEATHER SERVICE KANSAS CITY/PLEASANT HILL MO
800 AM CDT SAT JUL 30 2016

KSZ040-057-103>105-MOZ028-029-037-043-301400-
...KANSAS CITY METROPOLITAN AREA...

CITY           SKY/WX    TMP DP  RH WIND       PRES   REMARKS
K.C. INTL      MOSUNNY   68  62  81 NE6       30.02S
K.C. DOWNTOWN  SUNNY     71  64  78 NE7       30.01S
LEES SUMMIT    SUNNY     69  64  84 NE6       30.02S
OLATHE - IXD   MOSUNNY   70  64  81 E3        30.02S
OLATHE - OJC   SUNNY     69  63  81 E6        30.02S
LAWRENCE       SUNNY     68  64  87 E5        30.01S

$$

MOZ001>008-011>017-020>025-030>033-038>040-044>046-053-054-301400-
...NORTHERN AND CENTRAL MISSOURI...

CITY           SKY/WX    TMP DP  RH WIND       PRES   REMARKS
ST. JOSEPH     PTSUNNY   64  63  96 CALM      30.02S
MOSBY          SUNNY     64  63  94 CALM      30.02S
WHITEMAN AFB   SUNNY     68  68 100 NE5       30.01R
CLINTON        MOSUNNY   66  66 100 CALM      30.02R
SEDALIA        SUNNY     69  65  86 CALM      30.03R
WARSAW         NOT AVBL
CHILLICOTHE      N/A     70  65  84 CALM      30.03S
KIRKSVILLE     PTSUNNY   69  65  86 NW3       30.01F

$$

MOZ041-047>049-056>058-063>065-088>090-097-301400-
...EASTERN AND SOUTHERN MISSOURI...

CITY           SKY/WX    TMP DP  RH WIND       PRES   REMARKS
ST. LOUIS INTL MOSUNNY   77  67  71 NW5       29.99R
SPIRIT OF STL  SUNNY     73  69  87 CALM      29.98R
COLUMBIA       SUNNY     70  66  87 N6        30.01R
JEFFERSON CITY MOSUNNY   70  67  90 NW3       30.00S
ROLLA          SUNNY     71  68  90 W3        30.01R
OSAGE BEACH    MOSUNNY   71  69  93 CALM      30.02R
SPRINGFIELD    SUNNY     72  70  93 S3        30.02R
BRANSON        CLOUDY    72  72 100 CALM      30.05R FOG
JOPLIN         SUNNY     74  71  91 CALM      30.01S
WEST PLAINS    SUNNY     74  69  85 N3        30.04S

$$

IAZ060-094-KSZ022-034>040-054-083-096-NEZ052-066-093-301400-
...KANSAS...SOUTHEAST NEBRASKA AND IOWA...

CITY           SKY/WX    TMP DP  RH WIND       PRES   REMARKS
TOPEKA         SUNNY     69  64  84 E3        30.01S
MANHATTAN      SUNNY     69  64  84 NE6       30.00S
EMPORIA        SUNNY     70  66  87 E6        30.00S
CHANUTE        SUNNY     73  70  90 E6        30.00S
WICHITA        LGT RAIN  75  71  87 SW3       30.00S
OMAHA          MOSUNNY   65  61  87 CALM      30.05R
LINCOLN        SUNNY     67  62  84 CALM      30.04S
FALLS CITY     MOSUNNY   65  63  93 CALM      30.02S
LAMONI         CLOUDY    65  64  97 NW5       30.02S
DES MOINES     PTSUNNY   69  65  86 NE5       30.00S

$$





USA.gov is the U.S. government's official web portal to all federal, state and local government web resources and services.